Location: Bishopstone
(51.0167°N, 1.9000°W)
Time: 16:40:36
(UTC+00:00)

Cosmos 1741 Rocket - Pass Details

Date: 16 September 2019
Orbit: 761 x 783 km, 74.0° (Epoch: 13 October)

Event Time Altitude Azimuth Distance (km) Brightness Sun altitude
Rises 21:13:39 0° 336° (NNW) 3,284 8.3 -25.6°
Reaches altitude 10° 21:16:03 10° 338° (NNW) 2,352 7.3 -25.9°
Enters shadow 21:21:22 77° 59° (ENE) 810 3.9 -26.5°
